Погода Большое Нарымское

Погода Большое Нарымское : погода сейчас, прогноз погоды и архив. Всё, что Вы хотите узнать о погоде Большое Нарымское!

Поиск расширенной информации на нашем сайте:

Полезная информация: последние блоки аренда офиса в бизнес центре ЭКО , Мироновская ул., 25 описание помещений на сайте

Другие новости

Новости СМИ2

Главная страница сайта

Новости сайта

03.07.2017

Напоминаем, что на нашем специализированном сайте Метеоцентр.Азия вы можете получить высокодетализированные автоматические прогнозы погоды по пунктам России, СНГ и мира в авиационном формате (включающие направление и скорость ветра, видимость, явления погоды, количество и форму облачности, нижнюю и верхнюю границу облачности).

Рекомендуем: Самая актуальная информация напосим курс тут.

Погода Большое Нарымское - сегодня

Время (UTC), дата Ветер
(°,м/с) 
Видим.   Явления Облачность Т
(°С)
Тd
(°С)
f(%) Тe
(°С)
Pmin
(гПа)
dP
(гПа)
Po
(мм)
O2
(г/м3)
Тmin Tmax R s Состояние
почвы
12 20.08.17 320 (СЗ) 20000 м    9/5 1000 м кучево-дожд., средняя, верхняя 
[Cb cap|Ac lent|Cc]
+20.4 +3.4 33 +20  1015.4  -0.4  727  272    +2.3       
15 20.08.17 360 (С) н/о    3/3 1500 м 
[Sc]
+17.3 +2.9 38 +18  1016.9  728  275    +22       
18 20.08.17 310 (СЗ) н/о    ясно 
+9.4 +5.5 77 +10  1019.5  1.2  729  283    +22       
21 20.08.17 010 (С) н/о    ясно 
+6.3 +3.5 82 +7  1020.4  0.4  729  287           
00 21.08.17 070 (В) 20000 м    ясно 
+5.1 +4.2 94 +5  1021.5  0.8  730  288           
03 21.08.17 тихо ()   20000 м    3/1 1500 м верхняя 
[Cu hum|Ci fib]
+14 +5.7 57 +14  1020.6  0.6  730  279  +4.5         
06 21.08.17 220 (ЮЗ) 20000 м    4/3 1500 м верхняя 
[Cu med, cong|Ci fib]
+18.8 +5 40 +20  1018.7  -1  729  274  +4.5         
09 21.08.17 240 (ЮЗ) 20000 м    4/3 1500 м верхняя 
[Cu med, cong|Ci fib]
+20.7 +3.9 33 +21  1016.7  -1.7  728  272           
12 21.08.17 170 (Ю) 20000 м    6/6 1000 м кучево-дожд. 
[Cb cap]
+21.8 +3.9 31 +22  1016.3  -0.2  728  271    +3       
15 21.08.17 100 (В) н/о    3/1 1500 м верхняя 
[Sc|Ci fib]
+14.4 +7.2 62 +16  1018.4  0.9  729  278    +22.2       
18 21.08.17 080 (В) н/о    ясно 
+9.4 +5.3 76 +9  1020  0.7  729  283    +22.2       
21 21.08.17 060 (СВ) н/о    ясно 
+6 +4.9 93 +6  1020.4  -0.2  729  287           
00 22.08.17 070 (В) 20000 м    3/0 верхняя 
[Ci fib]
+5.2 +4.3 94 +5  1020.9  0.4  729  288    +0.4       
03 22.08.17 150 (ЮВ) 20000 м    1/0 верхняя 
[Ci fib]
+16 +6 51 +17  1019.2  0.1  729  277  +4.4         
06 22.08.17 тихо ()   20000 м    3/3 1500 м 
[Cu med, cong]
+21 +3.8 32 +21  1017.1  -1.2  728  272  +4.4         
09 22.08.17 260 (З) 20000 м    3/3 1500 м 
[Cu med, cong]
+23.5 +5 30 +24  1015.4  -1.3  727  269           
12 22.08.17 220 (ЮЗ) 20000 м    3/3 1500 м 
[Cu med, cong]
+23.4 +4.2 29 +23  1015  -0.4  727  269    +3.2       
15 22.08.17 030 (СВ) н/о    1/0 верхняя 
[Ci fib]
+14.4 +6.2 58 +15  1017.3  0.9  728  278    +24.1       
18 22.08.17 040 (СВ) н/о    ясно 
+9.8 +4.8 71 +10  1019.3  1.1  729  283    +24.1       
21 22.08.17 020 (С) н/о    ясно 
+7.8 +3.9 76 +8  1020.7  729  285           
00 23.08.17 030 (СВ) 20000 м    ясно 
+5 +3.6 91 +5  1022  0.8  730  288           
03 23.08.17 180 (Ю) 20000 м    3/0 верхняя 
[Ci fib]
+17 +6.1 49 +18  1020.9  0.9  731  276           
06 23.08.17 220 (ЮЗ) 20000 м    3/0 верхняя 
[Ci fib]
+22.4 +7.1 37 +22  1019.1  -0.9  730  271  +4.8         
09 23.08.17 230 (ЮЗ) 20000 м    4/0 средняя, верхняя 
[Ac lent|Ci fib]
+25.6 +5.6 28 +26  1017  -1.5  729  268           
12 23.08.17 290 (З) 20000 м    8/0 средняя, верхняя 
[Ac lent|Cc]
+24.4 +7.6 34 +24  1016.9  -0.3  729  268           
Время (UTC), дата Ветер
(°,м/с) 
Видим.   Явления Облачность Т
(°С)
Тd
(°С)
f(%) Тe
(°С)
Pmin
(гПа)
dP
(гПа)
Po
(мм)
O2
(г/м3)
Тmin Tmax R s Состояние
почвы

Для получения пояснительной информации подведите курсор к названию столбца.

ПОГОДА Большое Нарымское - архив

Всё, что Вы хотите узнать о погоде Большое Нарымское - удобно и подробно!

Выберите нужную дату (начиная с 1 января 2015* года) и нажмите кнопку "Найти".
Будут отображены архивные сводки погоды по пункту Большое Нарымское, начиная с указанной даты.


Отображать данные в формате CSV (для использования в таблицах Excel)


Внимание! Наш архив погоды предназначен исключительно для личного некоммерческого использования в познавательных целях. Если Вам необходимы официальные справки о состоянии погоды (для производственных, юридических, коммерческих и т.п. целей), обращайтесь в органы Росгидромета.

*Примечание: данная дата относится к архиву по метеостанциям СССР (Россия, СНГ, Балтия).
Архив по метеостанциям Зарубежной Европы и Азии (кроме Китая) хранится 10 дней, по другим регионам земного шара (Китай, Африка, Америка, Австралия, Океания) - 1 день.

Большое Нарымское - район местоположения метеостанции


Название, широта, долгота, высота метеостанции:
Большое Нарымское 49.2°ш. 84.5°д. 401 м над ур. моря [Казахстан]

Дополнительная информация

В oтличие oт бoльшинства пoгoдных сайтoв мы публикуем пoдрoбную метеoинфoрмацию в детальнoм прoфессиoнальнoм фoрмате.

Характеристики температуры и влажнoсти вoздуха измеряются на высoте 2 м в тени вдали oт зданий и деревьев.
Скoрoсть ветра измеряется на высoте 10 м (на урoвне рoста челoвека скoрoсть ветра ниже в 1.5-2 раза). Если метеoстанция нахoдится в гoрoде или в лесу, тo скoрoсть ветра занижена на 2-4 м/с пo сравнению с oткрытым местoм. Скoрoсть ветра над акватoриями крупных рек и oзёр, а также на вершинах хoлмoв на 2-5 м/с выше, чем в oбычных услoвиях.
Атмoсфернoе давление в разных тoчках местнoсти мoжет значительнo oтличаться oт давления на метеoстанции, в зависимoсти oт услoвий рельефа (при пoдъёме на 10 м давление пoнижается примернo на 1 мм рт.ст.).